Location: Arborea
(39.7744°N, 8.5819°E)
Time: 00:59:40
(UTC+00:00)

CZ-4C R/B - Pass Details

Date: 24 October 2021
Orbit: 403 x 482 km, 97.7° (Epoch: 06 December)

Event Time Altitude Azimuth Distance (km) Brightness Sun altitude
Rises 17:01:55 0° 27° (NNE) 2,439 6.3 -6.1°
Reaches altitude 10° 17:04:19 10° 44° (NE) 1,547 5.1 -6.6°
Maximum altitude 17:06:54 21° 95° (E) 1,018 4.1 -7.1°
Drops below altitude 10° 17:09:25 10° 147° (SSE) 1,503 5.3 -7.6°
Sets 17:11:42 0° 164° (SSE) 2,347 6.5 -8.0°
